Terminal Aerodrome Forecast
Issued by NWS Newport/Morehead City, NC

Home | Current Version | Previous Version | Graphics & Text | Print | Product List | Glossary On
Versions: 1 2 3 4 5 6 7 8 9 10 11 12 13 14 15 16 17 18 19 20 21
000
FTUS42 KMHX 191600 AAA
TAFEWN
TAF AMD
KEWN 191603Z 1916/2012 05015G22KT 6SM RA BKN007 OVC015
     FM200300 05014G20KT P6SM -RA OVC007=

USA.gov is the U.S. government's official web portal to all federal, state and local government web resources and services.